SCP
0 0 0 0 0 0 0 0 0 0 0 0 0 0 0 0 0 0 0 0 0 0 0 0 0 0 0 0 0 0 0 0 0 0 0 0 0 0 0 0 0 0 0 0 0 0 0
0 0 0 0 0 0 0 0 0 0 0 0 0 0 0 0 0 0 0 0 0 0 0 0 0 0 0 0 0 0 0 0 0 0 0 0 0 0 0 0 0 0 0 0 0 0 0
0 0 0 0 0 0 0 0 0 0 0 0 0 0 0 0 0 0 0 0 0 0 0 0 0 0 0 0 0 0 0 0 0 0 0 0 0 0 0 0 0 0 0 0 0 0 0
0 0 0 0 0 0 0 0 0 0 0 0 0 0 0 0 0 0 0 0 0 0 0 0 0 0 0 0 0 0 0 0 0 0 0 0 0 0 0 0 0 0 0 0 0 0 0
0 0 0 0 0 0 0 0 0 0 0 0 0 0 0 0 0 0 0 0 0 0 0 0 0 0 0 0 0 0 0 0 0 0 0 0 0 0 0 0 0 0 0 0 0 0 0
0 0 0 0 0 0 0 0 0 0 0 0 0 0 0 0 0 0 0 0 0 0 0 0 0 0 0 0 0 0 0 0 0 0 0 0 0 0 0 0 0 0 0 0 0 0 0
0 0 0 0 0 0 0 0 0 0 0 0 0 0 0 0 0 0 0 0 0 0 0 0 0 0 0 0 0 0 0 0 0 0 0 0 0 0 0 0 0 0 0 0 0 0 0
0 0 0 0 0 0 0 0 0 0 0 0 0 0 0 0 0 0 0 0 0 0 0 0 0 0 0 0 0 0 0 0 0 0 0 0 0 0 0 0 0 0 0 0 0 0 0
0 0 0 0 0 0 0 0 0 0 0 0 0 0 0 0 0 0 0 0 0 0 0 0 0 0 0 0 0 0 0 0 0 0 0 0 0 0 0 0 0 0 0 0 0 0 0
0 0 0 0 0 0 0 0 0 0 0 0 0 0 0 0 0 0 0 0 0 0 0 0 0 0 0 0 0 0 0 0 0 0 0 0 0 0 0 0 0 0 0 0 0 0 0
0 0 0 0 0 0 0 0 0 0 0 0 0 0 0 0 0 0 0 0 0 0 0 0 0 0 0 0 0 0 0 0 0 0 0 0 0 0 0 0 0 0 0 0 0 0 0
0 0 0 0 0 0 0 0 0 0 0 0 0 0 0 0 0 0 0 0 0 0 0 0 0 0 0 0 0 0 0 0 0 0 0 0 0 0 0 0 0 0 0 0 0 0 0
0 0 0 0 0 0 0 0 0 0 0 0 0 0 0 0 0 0 0 0 0 0 0 0 0 0 0 0 0 0 0 0 0 0 0 0 0 0 0 0 0 0 0 0 0 0 0
0 0 0 0 0 0 0 0 0 0 0 0 0 0 0 0 0 0 0 0 0 0 0 0 0 0 0 0 0 0 0 0 0 0 0 0 0 0 0 0 0 0 0 0 0 0 0
0 0 0 0 0 0 0 0 0 0 0 0 0 0 0 0 0 0 0 0 0 0 0 0 0 0 0 0 0 0 0 0 0 0 0 0 0 0 0 0 0 0 0 0 0 0 0
0 0 0 0 0 0 -0 0 0 0 0 0 0 0 0 0 0 0 0 0 0 0 0 0 0 0 0 0 0 0 0 0 0 0 0 0 0 0 0 0 0 0 0 0 0 0 0
0 0 0 0 0 0 0 0 0 0 0 0 0 0 0 0 0 0 0 0 0 0 0 0 0 0 0 0 0 0 0 0 0 0 0 0 0 0 0 0 0 0 0 0 0 0 0
-0 0 0 0 0 0 0 0 0 -0 0 0 0 0 0 0 0 0 0 0 0 0 0 0 0 0 0 0 0 0 0 0 0 0 0 0 0 0 0 0 0 0 0 0 0 0 0
0 0 0 0 0 0 0 0 -0 -0 0 0 0 0 0 1 0 0 0 0 0 0 0 0 0 0 0 0 0 0 0 0 0 0 0 0 0 0 0 0 0 0 0 0 0 0 0
0 0 0 0 0 0 0 0 0 0 0 0 0 0 0 0 0 0 0 0 0 0 0 0 0 0 0 0 0 0 0 0 0 0 0 0 0 0 0 0 0 0 0 0 0 0 0
0 0 0 0 0 0 0 0 -0 -0 0 0 0 0 0 0 0 0 0 0 0 0 0 0 0 0 0 0 0 0 0 0 0 0 0 0 0 0 0 0 0 0 0 0 0 0 0
0 0 0 0 0 0 0 0 -0 -0 0 0 0 0 0 0 0 0 0 0 0 0 0 0 0 0 0 0 0 0 0 0 0 0 0 0 0 0 0 0 0 0 0 0 0 0 0
0 0 0 0 0 0 0 0 -0 -0 0 0 0 0 0 0 0 0 0 0 0 0 0 0 0 0 0 0 0 0 0 0 0 0 0 0 0 0 0 0 0 0 0 0 0 0 0
0 0 0 0 0 0 0 0 -0 -0 0 0 0 0 0 0 0 0 0 0 0 0 0 0 0 0 0 0 0 0 0 0 0 0 0 0 0 0 0 0 0 0 0 0 0 0 0
0 0 0 0 0 0 0 0 0 -0 0 0 0 0 0 0 0 0 0 0 0 0 0 0 0 0 0 0 0 0 0 0 0 0 0 0 0 0 0 0 0 0 0 0 0 0 0
0 0 0 0 0 0 0 0 0 -0 -0 0 0 0 0 0 0 0 0 0 0 0 0 0 0 0 0 0 0 0 0 0 0 0 0 0 0 0 0 0 0 0 0 0 0 0 0
0 0 0 0 0 0 0 0 0 0 -0 0 0 0 0 0 0 0 0 0 0 0 0 0 0 0 0 0 0 0 0 0 0 0 0 0 0 0 0 0 0 0 0 0 0 0 0
0 0 0 0 0 0 0 0 0 0 -0 0 0 0 0 0 0 0 0 0 0 0 0 0 0 0 0 0 0 0 0 0 0 0 0 0 0 0 0 0 0 0 0 0 0 0 0
0 0 0 0 0 0 0 0 0 -0 -0 0 0 0 0 0 0 0 0 0 0 0 0 0 0 0 0 0 0 0 0 0 0 0 0 0 0 0 0 0 0 0 0 0 0 0 0
Wind_Speed_500mb
31 31 31 36 41 41 48 56 53 39 40 48 36 30 26 27 28 26 25 24 21 19 17 14 12 10 8 9 13 9 8 19 25 24 26 23 26 19 15 10 10 18 21 18 20 20 21
36 33 36 33 30 36 36 42 54 55 47 50 48 38 33 27 26 26 26 25 24 22 20 17 14 11 9 13 11 12 10 15 24 23 27 26 16 14 7 9 15 5 14 28 22 20 16
41 43 38 30 38 37 34 35 36 41 57 50 50 50 38 33 28 25 25 25 25 24 22 19 16 12 16 17 13 16 17 15 17 22 19 23 13 14 9 6 8 9 17 22 20 11 8
43 43 48 44 37 44 39 41 35 32 44 56 57 49 53 37 32 29 25 24 23 23 23 20 17 12 13 18 24 20 20 18 18 20 15 23 18 10 5 3 6 8 5 8 8 5 4
44 50 51 51 48 44 47 46 42 42 30 47 59 55 54 42 39 34 28 23 22 22 21 19 15 12 10 16 24 28 24 13 20 18 19 19 12 7 6 9 9 12 9 13 5 6 4
53 48 51 52 51 48 47 48 49 47 45 31 48 62 62 56 52 41 33 23 21 20 20 16 19 8 21 14 25 32 29 26 10 19 13 11 11 11 13 17 11 12 11 9 12 8 10
60 53 54 53 55 52 51 53 49 52 53 49 40 37 63 51 51 45 42 21 12 12 31 23 12 6 11 20 26 29 37 35 18 18 16 15 15 22 27 31 15 7 10 17 8 7 7
63 61 59 57 55 59 54 52 55 47 60 55 50 40 51 66 52 51 50 38 18 4 13 53 20 26 15 26 11 28 41 23 22 19 15 9 24 24 2 16 15 16 18 22 12 2 6
63 65 67 64 63 57 62 56 54 56 47 64 55 43 37 52 56 52 63 62 29 19 9 12 41 22 22 34 10 40 46 21 21 25 31 20 3 1 17 15 18 19 22 18 11 9 21
78 71 67 68 73 68 60 63 54 59 58 55 69 52 34 34 54 68 76 66 48 21 6 17 17 20 35 22 12 29 43 13 11 30 21 21 11 10 16 21 21 19 7 15 10 6 8
75 76 76 70 73 76 65 65 62 58 57 55 65 70 43 50 32 63 62 57 56 28 9 15 11 15 25 28 30 17 33 10 17 19 13 11 18 20 15 7 22 3 5 8 5 7 10
81 78 78 78 74 73 80 66 70 65 59 56 46 60 55 52 49 43 69 53 43 9 14 12 12 19 25 21 9 16 19 7 10 10 3 6 3 6 1 9 3 18 9 7 3 1 6
81 79 79 78 76 77 73 73 69 71 65 55 51 49 65 52 42 43 64 56 6 19 3 14 13 18 34 19 16 20 30 26 17 12 12 6 7 4 6 12 9 9 12 3 2 3 7
88 82 79 78 80 74 72 79 70 76 69 53 47 49 54 76 49 51 66 13 13 12 14 6 15 26 22 23 17 20 28 24 34 11 11 16 10 21 17 4 8 22 7 6 8 6 4
88 84 80 78 82 80 71 73 69 69 76 56 48 53 56 68 58 76 63 20 18 13 14 27 30 25 19 19 12 22 31 19 22 24 12 13 11 3 1 2 1 11 12 5 9 3 3
85 80 79 77 77 80 80 62 95 65 83 62 50 49 63 67 69 78 27 56 16 12 17 30 18 21 25 34 22 30 31 25 17 33 5 11 7 3 4 2 4 6 2 7 2 7 10
88 77 71 75 76 81 76 69 67 79 78 70 44 19 32 59 60 41 16 12 7 27 18 19 9 15 22 24 31 26 27 10 26 33 17 8 3 4 4 14 17 9 7 8 4 4 5
92 73 71 71 70 69 70 75 69 83 76 83 48 12 25 72 22 5 17 15 15 23 13 10 6 15 26 28 30 24 25 4 28 33 23 10 7 8 7 1 5 5 11 18 7 9 3
67 65 67 72 70 71 72 72 76 69 81 86 40 32 31 85 29 19 16 14 22 17 17 14 12 4 6 18 10 17 17 3 20 20 32 19 10 9 4 2 5 12 19 14 8 1 12
60 59 58 62 65 71 70 71 70 78 58 80 30 15 20 59 69 45 29 27 21 33 20 24 16 19 14 10 7 15 19 7 9 12 3 16 2 5 15 7 11 11 19 28 17 7 11
65 59 60 60 65 67 67 63 67 62 49 78 31 12 28 27 32 46 46 33 42 22 30 41 20 33 26 10 3 9 13 12 9 6 5 12 9 4 5 7 4 7 8 20 22 27 18
62 59 60 60 62 65 63 64 59 67 50 86 13 13 23 10 51 40 43 47 55 55 39 47 34 38 33 20 20 20 21 16 12 14 14 9 4 4 3 3 6 2 6 13 10 8 13
63 61 61 60 61 64 61 57 59 56 59 62 35 30 45 29 35 34 37 52 55 47 34 49 48 37 32 24 10 23 16 25 25 24 23 21 11 7 7 4 1 12 18 20 12 12 16
62 62 61 60 59 64 59 56 54 52 68 40 33 28 25 16 27 37 53 41 45 50 31 28 53 39 26 52 48 41 36 23 21 15 18 15 13 3 6 5 14 3 7 14 25 14 26
76 62 60 61 61 60 59 53 50 50 54 52 52 19 30 15 30 43 37 44 37 47 28 28 48 40 61 27 9 9 4 4 5 2 10 11 10 7 7 15 13 9 9 12 14 6 25
68 60 62 63 64 60 57 53 50 51 54 49 49 44 20 18 24 54 43 34 18 29 8 16 22 59 52 7 7 13 13 8 11 10 5 6 5 10 8 12 16 6 11 9 8 9 20
63 62 61 66 61 56 50 49 51 51 52 53 48 69 15 7 19 51 35 40 35 25 11 12 21 21 26 8 9 9 9 2 17 24 16 11 7 18 15 12 7 10 17 19 13 3 33
65 63 60 62 61 53 48 47 46 48 51 53 47 56 37 5 17 36 52 45 46 48 15 21 16 4 5 11 12 8 9 12 10 21 18 19 20 11 6 17 20 30 12 14 14 30 30
64 60 62 62 58 49 47 47 49 58 53 61 39 43 63 12 9 27 30 43 47 55 38 53 20 16 12 8 6 9 6 9 14 13 8 15 13 11 16 8 6 33 0 15 22 32 26
Wind_Direction_500mb
296 298 297 264 252 254 260 258 256 250 266 265 255 256 253 244 241 239 242 248 248 248 251 252 258 263 269 254 256 253 195 188 190 188 182 180 187 200 205 209 210 243 268 283 270 277 277
295 289 283 289 272 255 257 260 260 251 243 254 256 244 249 247 243 239 240 243 247 248 248 248 253 253 244 244 245 218 188 181 189 190 190 185 200 215 213 225 223 1 289 280 283 280 275
292 296 284 282 281 277 249 255 248 259 246 245 250 251 240 242 243 240 241 241 242 248 249 250 248 245 244 247 239 203 189 177 185 187 199 197 189 186 186 192 234 283 291 280 253 274 268
290 289 297 293 274 275 263 252 249 253 254 241 237 246 253 239 241 243 239 242 243 241 246 249 247 239 252 237 223 202 191 197 193 190 182 197 190 183 233 191 216 240 240 267 125 182 165
273 274 284 290 301 279 274 257 247 239 250 246 236 236 244 244 240 239 233 237 242 240 240 242 240 213 244 222 204 198 183 180 176 178 177 169 160 201 170 227 239 212 256 220 206 189 262
278 278 271 278 287 293 278 272 259 240 241 243 244 243 232 238 230 232 232 227 236 240 229 230 231 235 231 207 194 189 178 161 146 154 142 170 189 219 210 202 229 209 230 204 256 121 232
273 270 276 267 271 276 284 288 269 250 238 237 236 243 236 238 225 225 232 207 200 227 211 204 219 229 157 179 168 181 174 159 138 188 196 194 213 212 213 222 259 276 259 261 246 120 294
272 269 264 270 265 262 268 278 281 258 237 233 233 225 232 230 227 220 222 199 209 179 257 229 222 222 196 164 144 177 173 164 172 194 182 184 233 236 222 218 232 245 257 267 274 196 250
272 267 265 263 261 261 255 264 273 272 254 230 228 234 223 224 224 215 216 217 214 204 254 216 214 206 198 186 197 183 176 179 187 194 198 218 26 351 190 186 207 229 245 265 276 313 241
264 264 260 260 261 258 256 253 259 271 275 241 231 229 227 222 213 214 215 216 223 183 251 207 202 209 197 169 208 167 178 183 190 203 193 234 164 161 188 210 212 239 248 247 264 274 286
264 262 262 261 258 253 253 248 251 256 269 256 235 229 222 217 203 214 215 217 219 173 255 134 146 187 168 177 135 174 179 190 179 163 178 184 184 191 195 191 191 80 136 175 207 239 309
266 261 258 258 258 257 251 250 246 249 256 270 242 229 220 213 225 206 214 213 182 153 232 160 148 168 158 180 138 130 167 151 106 138 168 72 52 217 114 99 79 139 122 110 107 272 247
268 261 256 259 254 250 252 247 242 241 247 255 247 224 227 216 221 204 204 169 176 206 317 178 179 174 177 169 154 169 179 180 166 157 189 150 170 149 180 117 116 207 180 30 258 176 248
267 261 255 254 254 251 248 242 239 232 240 243 241 221 233 221 207 205 179 165 212 145 190 142 153 166 179 156 178 179 172 194 219 220 146 170 213 180 170 244 193 194 227 204 232 200 106
264 257 250 250 253 250 254 240 242 235 230 229 225 221 230 223 209 185 196 199 215 181 165 151 144 155 182 185 170 171 193 206 198 195 165 181 194 109 55 341 251 173 213 41 97 74 278
257 252 248 246 247 251 251 237 235 237 214 213 211 221 234 217 209 189 201 220 180 175 144 164 166 175 179 183 168 190 183 205 193 193 234 181 125 353 73 262 199 260 175 138 201 201 226
255 248 248 243 245 242 245 245 237 230 208 201 190 209 242 200 205 203 204 208 203 189 163 163 160 166 209 177 189 187 196 162 195 185 185 128 131 105 174 210 186 160 192 220 223 238 247
264 240 242 243 240 244 236 236 239 238 208 187 177 205 202 181 194 188 183 170 167 152 160 157 138 154 189 187 188 181 203 286 175 155 181 157 94 152 187 87 310 312 229 197 195 193 247
248 244 239 239 237 236 233 233 232 238 202 175 176 197 197 185 194 207 192 167 175 156 172 167 149 180 130 167 166 176 174 75 165 171 167 173 176 128 117 196 198 222 206 227 232 66 193
240 243 241 238 237 234 233 232 226 224 211 177 167 177 172 200 210 213 204 193 189 171 169 171 154 160 141 138 278 162 142 142 178 177 166 164 104 192 196 109 123 189 210 204 194 192 192
239 240 243 235 233 230 228 229 222 225 220 186 194 198 178 190 203 207 196 193 199 173 207 194 184 182 174 134 67 154 125 130 151 181 155 193 189 129 66 67 128 193 172 193 203 211 210
240 238 236 234 231 225 225 225 224 229 230 202 206 161 159 155 204 207 197 205 202 201 182 197 202 194 184 158 188 185 153 168 171 168 182 184 136 127 125 46 28 308 181 192 208 236 273
234 233 231 229 231 222 222 222 218 221 224 206 216 212 184 187 184 188 203 197 203 190 195 206 200 188 199 198 182 158 173 166 160 163 175 174 144 147 191 100 209 271 196 188 189 206 201
229 225 224 224 224 218 217 217 217 218 229 227 196 202 191 183 185 197 200 202 197 193 176 205 189 184 150 121 98 81 76 94 130 131 158 170 141 84 118 167 226 71 108 204 208 216 219
225 217 220 219 219 218 216 214 217 216 220 230 205 215 201 191 194 193 186 198 194 185 175 176 195 181 149 132 91 101 85 97 47 325 167 150 138 137 204 216 304 186 191 179 178 228 215
221 207 215 214 216 214 211 210 209 213 222 238 231 206 222 196 206 187 181 173 170 190 105 170 179 158 154 122 119 180 182 131 170 161 171 105 215 195 172 214 215 189 143 152 151 246 166
213 212 211 210 210 209 207 205 205 210 214 220 222 200 190 206 193 189 184 191 184 161 136 126 152 164 174 127 159 178 169 86 168 168 171 159 164 205 189 219 262 150 132 147 185 146 150
212 207 202 205 206 206 206 205 203 205 207 217 229 207 184 171 169 197 191 172 184 197 170 148 124 163 124 156 182 162 154 187 158 169 172 171 176 185 182 209 233 151 139 196 119 126 138
201 197 194 195 199 202 203 197 201 201 205 205 213 207 193 195 135 173 183 192 188 179 163 171 177 141 169 119 199 126 145 167 142 174 223 200 203 178 203 208 81 178 278 163 146 145 144
Wind_Speed_850mb
31 31 31 36 41 41 48 56 53 39 40 48 36 30 26 27 28 26 25 24 21 19 17 14 12 10 8 9 13 9 8 19 25 24 26 23 26 19 15 10 10 18 21 18 20 20 21
36 33 36 33 30 36 36 42 54 55 47 50 48 38 33 27 26 26 26 25 24 22 20 17 14 11 9 13 11 12 10 15 24 23 27 26 16 14 7 9 15 5 14 28 22 20 16
41 43 38 30 38 37 34 35 36 41 57 50 50 50 38 33 28 25 25 25 25 24 22 19 16 12 16 17 13 16 17 15 17 22 19 23 13 14 9 6 8 9 17 22 20 11 8
43 43 48 44 37 44 39 41 35 32 44 56 57 49 53 37 32 29 25 24 23 23 23 20 17 12 13 18 24 20 20 18 18 20 15 23 18 10 5 3 6 8 5 8 8 5 4
44 50 51 51 48 44 47 46 42 42 30 47 59 55 54 42 39 34 28 23 22 22 21 19 15 12 10 16 24 28 24 13 20 18 19 19 12 7 6 9 9 12 9 13 5 6 4
53 48 51 52 51 48 47 48 49 47 45 31 48 62 62 56 52 41 33 23 21 20 20 16 19 8 21 14 25 32 29 26 10 19 13 11 11 11 13 17 11 12 11 9 12 8 10
60 53 54 53 55 52 51 53 49 52 53 49 40 37 63 51 51 45 42 21 12 12 31 23 12 6 11 20 26 29 37 35 18 18 16 15 15 22 27 31 15 7 10 17 8 7 7
63 61 59 57 55 59 54 52 55 47 60 55 50 40 51 66 52 51 50 38 18 4 13 53 20 26 15 26 11 28 41 23 22 19 15 9 24 24 2 16 15 16 18 22 12 2 6
63 65 67 64 63 57 62 56 54 56 47 64 55 43 37 52 56 52 63 62 29 19 9 12 41 22 22 34 10 40 46 21 21 25 31 20 3 1 17 15 18 19 22 18 11 9 21
78 71 67 68 73 68 60 63 54 59 58 55 69 52 34 34 54 68 76 66 48 21 6 17 17 20 35 22 12 29 43 13 11 30 21 21 11 10 16 21 21 19 7 15 10 6 8
75 76 76 70 73 76 65 65 62 58 57 55 65 70 43 50 32 63 62 57 56 28 9 15 11 15 25 28 30 17 33 10 17 19 13 11 18 20 15 7 22 3 5 8 5 7 10
81 78 78 78 74 73 80 66 70 65 59 56 46 60 55 52 49 43 69 53 43 9 14 12 12 19 25 21 9 16 19 7 10 10 3 6 3 6 1 9 3 18 9 7 3 1 6
81 79 79 78 76 77 73 73 69 71 65 55 51 49 65 52 42 43 64 56 6 19 3 14 13 18 34 19 16 20 30 26 17 12 12 6 7 4 6 12 9 9 12 3 2 3 7
88 82 79 78 80 74 72 79 70 76 69 53 47 49 54 76 49 51 66 13 13 12 14 6 15 26 22 23 17 20 28 24 34 11 11 16 10 21 17 4 8 22 7 6 8 6 4
88 84 80 78 82 80 71 73 69 69 76 56 48 53 56 68 58 76 63 20 18 13 14 27 30 25 19 19 12 22 31 19 22 24 12 13 11 3 1 2 1 11 12 5 9 3 3
85 80 79 77 77 80 80 62 95 65 83 62 50 49 63 67 69 78 27 56 16 12 17 30 18 21 25 34 22 30 31 25 17 33 5 11 7 3 4 2 4 6 2 7 2 7 10
88 77 71 75 76 81 76 69 67 79 78 70 44 19 32 59 60 41 16 12 7 27 18 19 9 15 22 24 31 26 27 10 26 33 17 8 3 4 4 14 17 9 7 8 4 4 5
92 73 71 71 70 69 70 75 69 83 76 83 48 12 25 72 22 5 17 15 15 23 13 10 6 15 26 28 30 24 25 4 28 33 23 10 7 8 7 1 5 5 11 18 7 9 3
67 65 67 72 70 71 72 72 76 69 81 86 40 32 31 85 29 19 16 14 22 17 17 14 12 4 6 18 10 17 17 3 20 20 32 19 10 9 4 2 5 12 19 14 8 1 12
60 59 58 62 65 71 70 71 70 78 58 80 30 15 20 59 69 45 29 27 21 33 20 24 16 19 14 10 7 15 19 7 9 12 3 16 2 5 15 7 11 11 19 28 17 7 11
65 59 60 60 65 67 67 63 67 62 49 78 31 12 28 27 32 46 46 33 42 22 30 41 20 33 26 10 3 9 13 12 9 6 5 12 9 4 5 7 4 7 8 20 22 27 18
62 59 60 60 62 65 63 64 59 67 50 86 13 13 23 10 51 40 43 47 55 55 39 47 34 38 33 20 20 20 21 16 12 14 14 9 4 4 3 3 6 2 6 13 10 8 13
63 61 61 60 61 64 61 57 59 56 59 62 35 30 45 29 35 34 37 52 55 47 34 49 48 37 32 24 10 23 16 25 25 24 23 21 11 7 7 4 1 12 18 20 12 12 16
62 62 61 60 59 64 59 56 54 52 68 40 33 28 25 16 27 37 53 41 45 50 31 28 53 39 26 52 48 41 36 23 21 15 18 15 13 3 6 5 14 3 7 14 25 14 26
76 62 60 61 61 60 59 53 50 50 54 52 52 19 30 15 30 43 37 44 37 47 28 28 48 40 61 27 9 9 4 4 5 2 10 11 10 7 7 15 13 9 9 12 14 6 25
68 60 62 63 64 60 57 53 50 51 54 49 49 44 20 18 24 54 43 34 18 29 8 16 22 59 52 7 7 13 13 8 11 10 5 6 5 10 8 12 16 6 11 9 8 9 20
63 62 61 66 61 56 50 49 51 51 52 53 48 69 15 7 19 51 35 40 35 25 11 12 21 21 26 8 9 9 9 2 17 24 16 11 7 18 15 12 7 10 17 19 13 3 33
65 63 60 62 61 53 48 47 46 48 51 53 47 56 37 5 17 36 52 45 46 48 15 21 16 4 5 11 12 8 9 12 10 21 18 19 20 11 6 17 20 30 12 14 14 30 30
64 60 62 62 58 49 47 47 49 58 53 61 39 43 63 12 9 27 30 43 47 55 38 53 20 16 12 8 6 9 6 9 14 13 8 15 13 11 16 8 6 33 0 15 22 32 26
Wind_Direction_850mb
296 298 297 264 252 254 260 258 256 250 266 265 255 256 253 244 241 239 242 248 248 248 251 252 258 263 269 254 256 253 195 188 190 188 182 180 187 200 205 209 210 243 268 283 270 277 277
295 289 283 289 272 255 257 260 260 251 243 254 256 244 249 247 243 239 240 243 247 248 248 248 253 253 244 244 245 218 188 181 189 190 190 185 200 215 213 225 223 1 289 280 283 280 275
292 296 284 282 281 277 249 255 248 259 246 245 250 251 240 242 243 240 241 241 242 248 249 250 248 245 244 247 239 203 189 177 185 187 199 197 189 186 186 192 234 283 291 280 253 274 268
290 289 297 293 274 275 263 252 249 253 254 241 237 246 253 239 241 243 239 242 243 241 246 249 247 239 252 237 223 202 191 197 193 190 182 197 190 183 233 191 216 240 240 267 125 182 165
273 274 284 290 301 279 274 257 247 239 250 246 236 236 244 244 240 239 233 237 242 240 240 242 240 213 244 222 204 198 183 180 176 178 177 169 160 201 170 227 239 212 256 220 206 189 262
278 278 271 278 287 293 278 272 259 240 241 243 244 243 232 238 230 232 232 227 236 240 229 230 231 235 231 207 194 189 178 161 146 154 142 170 189 219 210 202 229 209 230 204 256 121 232
273 270 276 267 271 276 284 288 269 250 238 237 236 243 236 238 225 225 232 207 200 227 211 204 219 229 157 179 168 181 174 159 138 188 196 194 213 212 213 222 259 276 259 261 246 120 294
272 269 264 270 265 262 268 278 281 258 237 233 233 225 232 230 227 220 222 199 209 179 257 229 222 222 196 164 144 177 173 164 172 194 182 184 233 236 222 218 232 245 257 267 274 196 250
272 267 265 263 261 261 255 264 273 272 254 230 228 234 223 224 224 215 216 217 214 204 254 216 214 206 198 186 197 183 176 179 187 194 198 218 26 351 190 186 207 229 245 265 276 313 241
264 264 260 260 261 258 256 253 259 271 275 241 231 229 227 222 213 214 215 216 223 183 251 207 202 209 197 169 208 167 178 183 190 203 193 234 164 161 188 210 212 239 248 247 264 274 286
264 262 262 261 258 253 253 248 251 256 269 256 235 229 222 217 203 214 215 217 219 173 255 134 146 187 168 177 135 174 179 190 179 163 178 184 184 191 195 191 191 80 136 175 207 239 309
266 261 258 258 258 257 251 250 246 249 256 270 242 229 220 213 225 206 214 213 182 153 232 160 148 168 158 180 138 130 167 151 106 138 168 72 52 217 114 99 79 139 122 110 107 272 247
268 261 256 259 254 250 252 247 242 241 247 255 247 224 227 216 221 204 204 169 176 206 317 178 179 174 177 169 154 169 179 180 166 157 189 150 170 149 180 117 116 207 180 30 258 176 248
267 261 255 254 254 251 248 242 239 232 240 243 241 221 233 221 207 205 179 165 212 145 190 142 153 166 179 156 178 179 172 194 219 220 146 170 213 180 170 244 193 194 227 204 232 200 106
264 257 250 250 253 250 254 240 242 235 230 229 225 221 230 223 209 185 196 199 215 181 165 151 144 155 182 185 170 171 193 206 198 195 165 181 194 109 55 341 251 173 213 41 97 74 278
257 252 248 246 247 251 251 237 235 237 214 213 211 221 234 217 209 189 201 220 180 175 144 164 166 175 179 183 168 190 183 205 193 193 234 181 125 353 73 262 199 260 175 138 201 201 226
255 248 248 243 245 242 245 245 237 230 208 201 190 209 242 200 205 203 204 208 203 189 163 163 160 166 209 177 189 187 196 162 195 185 185 128 131 105 174 210 186 160 192 220 223 238 247
264 240 242 243 240 244 236 236 239 238 208 187 177 205 202 181 194 188 183 170 167 152 160 157 138 154 189 187 188 181 203 286 175 155 181 157 94 152 187 87 310 312 229 197 195 193 247
248 244 239 239 237 236 233 233 232 238 202 175 176 197 197 185 194 207 192 167 175 156 172 167 149 180 130 167 166 176 174 75 165 171 167 173 176 128 117 196 198 222 206 227 232 66 193
240 243 241 238 237 234 233 232 226 224 211 177 167 177 172 200 210 213 204 193 189 171 169 171 154 160 141 138 278 162 142 142 178 177 166 164 104 192 196 109 123 189 210 204 194 192 192
239 240 243 235 233 230 228 229 222 225 220 186 194 198 178 190 203 207 196 193 199 173 207 194 184 182 174 134 67 154 125 130 151 181 155 193 189 129 66 67 128 193 172 193 203 211 210
240 238 236 234 231 225 225 225 224 229 230 202 206 161 159 155 204 207 197 205 202 201 182 197 202 194 184 158 188 185 153 168 171 168 182 184 136 127 125 46 28 308 181 192 208 236 273
234 233 231 229 231 222 222 222 218 221 224 206 216 212 184 187 184 188 203 197 203 190 195 206 200 188 199 198 182 158 173 166 160 163 175 174 144 147 191 100 209 271 196 188 189 206 201
229 225 224 224 224 218 217 217 217 218 229 227 196 202 191 183 185 197 200 202 197 193 176 205 189 184 150 121 98 81 76 94 130 131 158 170 141 84 118 167 226 71 108 204 208 216 219
225 217 220 219 219 218 216 214 217 216 220 230 205 215 201 191 194 193 186 198 194 185 175 176 195 181 149 132 91 101 85 97 47 325 167 150 138 137 204 216 304 186 191 179 178 228 215
221 207 215 214 216 214 211 210 209 213 222 238 231 206 222 196 206 187 181 173 170 190 105 170 179 158 154 122 119 180 182 131 170 161 171 105 215 195 172 214 215 189 143 152 151 246 166
213 212 211 210 210 209 207 205 205 210 214 220 222 200 190 206 193 189 184 191 184 161 136 126 152 164 174 127 159 178 169 86 168 168 171 159 164 205 189 219 262 150 132 147 185 146 150
212 207 202 205 206 206 206 205 203 205 207 217 229 207 184 171 169 197 191 172 184 197 170 148 124 163 124 156 182 162 154 187 158 169 172 171 176 185 182 209 233 151 139 196 119 126 138
201 197 194 195 199 202 203 197 201 201 205 205 213 207 193 195 135 173 183 192 188 179 163 171 177 141 169 119 199 126 145 167 142 174 223 200 203 178 203 208 81 178 278 163 146 145 144